VOZ892 YSSY-YMML

Flight info

Callsign VOZ892
Flight time N/A
Altitude 38000
Route WOL H65 LEECE Q29 ML
Aircraft B738/M-SDE2E3FGHIRWXY/LB1

Departure

Time 2026-05-04 10:29
Airport Sydney Kingsford Smith International Airport (YSSY)

Arrival

Time N/A
Airport Melbourne Airport (YMML)
Time Latitude Longitude Altitude Speed Heading
2026-05-04 09:38 -33.93930 151.16700 20 ft 0 kts 259°
2026-05-04 10:13 -33.93929 151.16705 20 ft 2 kts 259°
2026-05-04 10:13 -33.93926 151.16724 21 ft 2 kts 259°
2026-05-04 10:13 -33.93923 151.16743 20 ft 2 kts 259°
2026-05-04 10:14 -33.93919 151.16762 20 ft 2 kts 229°
2026-05-04 10:14 -33.93909 151.16770 22 ft 1 kts 173°
2026-05-04 10:16 -33.93904 151.16770 24 ft 0 kts 168°
2026-05-04 10:17 -33.93905 151.16770 21 ft 1 kts 168°
2026-05-04 10:19 -33.94116 151.16833 22 ft 16 kts 166°
2026-05-04 10:19 -33.94247 151.16870 22 ft 22 kts 167°
2026-05-04 10:19 -33.94314 151.16888 22 ft 10 kts 168°
2026-05-04 10:19 -33.94399 151.16932 23 ft 17 kts 119°
2026-05-04 10:20 -33.94378 151.17106 24 ft 25 kts 75°
2026-05-04 10:20 -33.94331 151.17325 24 ft 25 kts 81°
2026-05-04 10:20 -33.94352 151.17393 27 ft 0 kts 141°
2026-05-04 10:21 -33.94353 151.17395 27 ft 0 kts 141°
2026-05-04 10:21 -33.94311 151.17340 25 ft 15 kts 128°
2026-05-04 10:21 -33.94280 151.17299 26 ft 0 kts 150°
2026-05-04 10:21 -33.94281 151.17300 24 ft 1 kts 152°
2026-05-04 10:22 -33.94498 151.17365 27 ft 24 kts 167°
2026-05-04 10:22 -33.94670 151.17408 26 ft 27 kts 168°
2026-05-04 10:22 -33.94867 151.17458 19 ft 31 kts 168°
2026-05-04 10:23 -33.95086 151.17516 21 ft 32 kts 167°
2026-05-04 10:23 -33.95307 151.17570 17 ft 32 kts 168°
2026-05-04 10:25 -33.96438 151.17911 23 ft 6 kts 103°
2026-05-04 10:25 -33.96438 151.17917 23 ft 0 kts 93°
2026-05-04 10:27 -33.96434 151.17972 23 ft 12 kts 80°
2026-05-04 10:28 -33.96412 151.18049 24 ft 0 kts 46°
2026-05-04 10:28 -33.96400 151.18054 25 ft 6 kts 11°
2026-05-04 10:28 -33.96304 151.18033 23 ft 31 kts 347°
2026-05-04 10:28 -33.95761 151.17891 21 ft 125 kts 348°
2026-05-04 10:29 -33.94696 151.17618 364 ft 172 kts 350°
2026-05-04 10:29 -33.93568 151.17331 1583 ft 161 kts 348°
2026-05-04 10:29 -33.92527 151.16951 2765 ft 154 kts 329°
2026-05-04 10:29 -33.91867 151.15962 3829 ft 151 kts 306°
2026-05-04 10:30 -33.91282 151.14886 4594 ft 166 kts 307°
2026-05-04 10:30 -33.90582 151.13621 5003 ft 201 kts 306°
2026-05-04 10:30 -33.89719 151.12048 5038 ft 249 kts 306°
2026-05-04 10:30 -33.88681 151.10132 5038 ft 298 kts 305°
2026-05-04 10:31 -33.87462 151.07860 5053 ft 346 kts 304°
2026-05-04 10:31 -33.86088 151.05287 5045 ft 373 kts 304°
2026-05-04 10:32 -33.82921 150.89984 5150 ft 272 kts 275°
2026-05-04 10:33 -33.82721 150.87791 5158 ft 257 kts 288°
2026-05-04 10:33 -33.82194 150.85750 5170 ft 256 kts 290°
2026-05-04 10:33 -33.81720 150.83683 5166 ft 258 kts 287°
2026-05-04 10:33 -33.81206 150.81622 5164 ft 257 kts 290°
2026-05-04 10:34 -33.80667 150.79579 5179 ft 257 kts 290°
2026-05-04 10:34 -33.80118 150.77523 5256 ft 258 kts 290°
2026-05-04 10:34 -33.79790 150.75399 5303 ft 266 kts 268°
2026-05-04 10:34 -33.80169 150.73196 6019 ft 270 kts 262°
2026-05-04 10:35 -33.80467 150.70998 7051 ft 266 kts 268°
2026-05-04 10:35 -33.80827 150.68803 7924 ft 276 kts 248°
2026-05-04 10:35 -33.82120 150.67046 8774 ft 292 kts 216°
2026-05-04 10:35 -33.83928 150.65875 9644 ft 299 kts 209°
2026-05-04 10:36 -33.85919 150.65031 10373 ft 311 kts 194°
2026-05-04 10:36 -33.88171 150.64907 10622 ft 341 kts 174°
2026-05-04 10:36 -33.90526 150.65730 10955 ft 363 kts 153°
2026-05-04 10:36 -33.92529 150.67547 11575 ft 370 kts 129°
2026-05-04 10:37 -33.93795 150.70210 12334 ft 368 kts 105°
2026-05-04 10:37 -33.94376 150.73196 13116 ft 368 kts 96°
2026-05-04 10:37 -33.94782 150.76261 13859 ft 373 kts 95°
2026-05-04 10:37 -33.95216 150.79364 14510 ft 378 kts 97°
2026-05-04 10:39 -34.02996 150.95304 18364 ft 410 kts 171°
2026-05-04 10:39 -34.05823 150.95421 18926 ft 406 kts 192°
2026-05-04 10:39 -34.08566 150.94650 19522 ft 406 kts 199°
2026-05-04 10:40 -34.11303 150.93736 20080 ft 410 kts 199°
2026-05-04 10:40 -34.14055 150.92789 20636 ft 413 kts 199°
2026-05-04 10:40 -34.16834 150.91839 21193 ft 417 kts 199°
2026-05-04 10:40 -34.19642 150.90896 21736 ft 421 kts 199°
2026-05-04 10:41 -34.22475 150.89960 22258 ft 424 kts 199°
2026-05-04 10:41 -34.25339 150.89023 22774 ft 428 kts 199°
2026-05-04 10:41 -34.28223 150.88085 23288 ft 431 kts 199°
2026-05-04 10:41 -34.31132 150.87140 23763 ft 434 kts 199°
2026-05-04 10:42 -34.34060 150.86189 24208 ft 436 kts 199°
2026-05-04 10:42 -34.36995 150.85235 24678 ft 438 kts 199°
2026-05-04 10:42 -34.39942 150.84276 25150 ft 439 kts 199°
2026-05-04 10:42 -34.42899 150.83312 25595 ft 441 kts 199°
2026-05-04 10:43 -34.45868 150.82343 26004 ft 443 kts 200°
2026-05-04 10:44 -34.62490 150.68215 28035 ft 427 kts 239°
2026-05-04 10:45 -34.64000 150.65633 28040 ft 426 kts 239°
2026-05-04 10:45 -34.67453 150.59790 28049 ft 425 kts 239°
2026-05-04 10:46 -34.70933 150.53968 28047 ft 426 kts 239°
2026-05-04 10:46 -34.74430 150.48135 28038 ft 427 kts 238°
2026-05-04 10:47 -34.77936 150.42282 28045 ft 428 kts 238°
2026-05-04 10:47 -34.81444 150.36414 28062 ft 430 kts 239°
2026-05-04 10:47 -34.83212 150.33451 28214 ft 435 kts 238°
2026-05-04 10:49 -34.95765 150.12350 30699 ft 444 kts 239°
2026-05-04 10:49 -34.96963 150.10332 30928 ft 444 kts 239°
2026-05-04 10:50 -34.99381 150.06251 31417 ft 443 kts 239°
2026-05-04 10:51 -35.11031 149.86529 34331 ft 422 kts 240°
2026-05-04 10:52 -35.12741 149.83624 34649 ft 420 kts 240°
2026-05-04 10:52 -35.14441 149.80735 34938 ft 419 kts 240°
2026-05-04 10:52 -35.16140 149.77844 35217 ft 418 kts 240°
2026-05-04 10:54 -35.27753 149.58019 37427 ft 403 kts 242°
2026-05-04 10:54 -35.29378 149.55234 37672 ft 402 kts 242°
2026-05-04 10:56 -35.40695 149.35784 38104 ft 397 kts 243°
2026-05-04 10:56 -35.42293 149.33030 38101 ft 396 kts 243°
2026-05-04 10:57 -35.45482 149.27525 38099 ft 396 kts 243°
2026-05-04 10:57 -35.48663 149.22026 38102 ft 395 kts 243°
2026-05-04 10:58 -35.51841 149.16521 38094 ft 396 kts 243°
2026-05-04 10:58 -35.55030 149.10991 38092 ft 397 kts 243°
2026-05-04 10:59 -35.58200 149.05485 38097 ft 398 kts 243°
2026-05-04 10:59 -35.61396 148.99926 38102 ft 398 kts 243°
2026-05-04 11:00 -35.64593 148.94355 38087 ft 399 kts 243°
2026-05-04 11:02 -35.77406 148.71940 38096 ft 401 kts 243°
2026-05-04 11:05 -36.01690 148.28963 35093 ft 415 kts 244°
2026-05-04 11:06 -36.04965 148.23118 35103 ft 413 kts 244°
2026-05-04 11:06 -36.08245 148.17247 35099 ft 416 kts 244°
2026-05-04 11:08 -36.19826 147.96527 33965 ft 416 kts 244°
2026-05-04 11:10 -36.31312 147.75867 32139 ft 413 kts 244°
2026-05-04 11:12 -36.42559 147.55485 30443 ft 406 kts 245°
2026-05-04 11:12 -36.44151 147.52583 29674 ft 414 kts 244°
2026-05-04 11:12 -36.45796 147.49564 28479 ft 427 kts 244°
2026-05-04 11:12 -36.47482 147.46475 27348 ft 437 kts 243°
2026-05-04 11:13 -36.49211 147.43317 26258 ft 446 kts 243°
2026-05-04 11:13 -36.50970 147.40107 25204 ft 453 kts 242°
2026-05-04 11:13 -36.52755 147.36851 24187 ft 458 kts 242°
2026-05-04 11:13 -36.54556 147.33564 23113 ft 462 kts 242°
2026-05-04 11:14 -36.56370 147.30248 21956 ft 465 kts 242°
2026-05-04 11:14 -36.58189 147.26921 20856 ft 466 kts 241°
2026-05-04 11:14 -36.60004 147.23598 20271 ft 457 kts 241°
2026-05-04 11:16 -36.71011 147.03331 17984 ft 388 kts 242°
2026-05-04 11:16 -36.72517 147.00547 17325 ft 387 kts 241°
2026-05-04 11:16 -36.74019 146.97769 16694 ft 386 kts 241°
2026-05-04 11:17 -36.75517 146.94998 16064 ft 384 kts 241°
2026-05-04 11:17 -36.77026 146.92205 15456 ft 383 kts 241°
2026-05-04 11:19 -36.87525 146.72703 10820 ft 365 kts 241°
2026-05-04 11:19 -36.88914 146.70129 10719 ft 349 kts 242°
2026-05-04 11:19 -36.90255 146.67629 9915 ft 354 kts 242°
2026-05-04 11:19 -36.91629 146.65045 9315 ft 355 kts 242°
2026-05-04 11:20 -36.92974 146.62530 9146 ft 341 kts 242°
2026-05-04 11:20 -36.94264 146.60123 8999 ft 327 kts 242°
2026-05-04 11:20 -36.95502 146.57813 8933 ft 313 kts 243°
2026-05-04 11:20 -36.96681 146.55608 8926 ft 297 kts 243°
2026-05-04 11:22 -37.03992 146.41863 8925 ft 248 kts 244°
2026-05-04 11:22 -37.04933 146.40093 8904 ft 240 kts 245°
2026-05-04 11:23 -37.05845 146.38376 8907 ft 235 kts 245°
2026-05-04 11:23 -37.06757 146.36650 8934 ft 241 kts 245°
2026-05-04 11:24 -37.05453 146.26881 8917 ft 218 kts 340°
2026-05-04 11:25 -37.03926 146.26785 8932 ft 225 kts
2026-05-04 11:25 -37.02405 146.27400 8941 ft 237 kts 20°
2026-05-04 11:25 -37.01040 146.28645 8932 ft 250 kts 41°
2026-05-04 11:26 -36.99021 146.32233 8864 ft 250 kts 49°
2026-05-04 11:27 -36.95472 146.45657 8930 ft 278 kts 128°
2026-05-04 11:28 -36.96969 146.47144 8923 ft 277 kts 159°
2026-05-04 11:28 -36.98809 146.47580 8948 ft 266 kts 190°
2026-05-04 11:28 -37.00530 146.46955 8927 ft 253 kts 217°
2026-05-04 11:28 -37.01872 146.45644 8945 ft 241 kts 237°
2026-05-04 11:29 -37.02864 146.43981 8934 ft 237 kts 244°
2026-05-04 11:29 -37.03769 146.42253 8943 ft 238 kts 245°
2026-05-04 11:29 -37.04685 146.40503 8923 ft 242 kts 244°
2026-05-04 11:29 -37.05616 146.38751 8914 ft 242 kts 244°
2026-05-04 11:31 -37.05625 146.27400 8930 ft 217 kts 339°
2026-05-04 11:33 -36.97669 146.35499 8921 ft 241 kts 48°
2026-05-04 11:33 -36.96932 146.37404 8919 ft 252 kts 72°
2026-05-04 11:33 -36.96932 146.39653 8952 ft 270 kts 99°
2026-05-04 11:34 -36.97719 146.41817 8931 ft 280 kts 127°
2026-05-04 11:34 -36.99788 146.43569 8948 ft 269 kts 171°
2026-05-04 11:34 -37.01022 146.43724 8899 ft 261 kts 190°
2026-05-04 11:34 -37.03162 146.42689 8918 ft 249 kts 224°
2026-05-04 11:35 -37.04003 146.41708 8940 ft 241 kts 239°
2026-05-04 11:35 -37.04958 146.40009 8918 ft 237 kts 244°
2026-05-04 11:35 -37.05869 146.38305 8918 ft 234 kts 244°
2026-05-04 11:35 -37.06771 146.36618 8920 ft 232 kts 244°
2026-05-04 11:36 -37.07666 146.34950 8912 ft 230 kts 244°
2026-05-04 11:36 -37.08561 146.33258 8954 ft 244 kts 244°
2026-05-04 11:36 -37.09559 146.31341 8953 ft 281 kts 243°
2026-05-04 11:36 -37.10690 146.29175 9001 ft 313 kts 242°
2026-05-04 11:37 -37.11940 146.26801 8959 ft 335 kts 241°
2026-05-04 11:37 -37.13240 146.24354 8927 ft 339 kts 240°
2026-05-04 11:37 -37.14547 146.21900 8921 ft 338 kts 240°
2026-05-04 11:37 -37.15846 146.19457 8918 ft 337 kts 241°
2026-05-04 11:38 -37.17142 146.17013 8916 ft 336 kts 240°
2026-05-04 11:38 -37.18428 146.14583 8913 ft 330 kts 241°
2026-05-04 11:38 -37.19714 146.12141 8930 ft 347 kts 241°
2026-05-04 11:38 -37.21067 146.09564 8922 ft 356 kts 240°
2026-05-04 11:39 -37.22441 146.06952 8907 ft 360 kts 240°
2026-05-04 11:39 -37.23831 146.04345 8897 ft 359 kts 240°
2026-05-04 11:40 -37.32030 145.88693 8911 ft 358 kts 240°
2026-05-04 11:41 -37.33382 145.86118 8919 ft 358 kts 240°
2026-05-04 11:41 -37.34757 145.83502 8914 ft 358 kts 240°
2026-05-04 11:41 -37.36127 145.80893 8920 ft 357 kts 240°
2026-05-04 11:41 -37.37493 145.78285 8922 ft 358 kts 240°
2026-05-04 11:42 -37.38883 145.75630 8902 ft 358 kts 240°
2026-05-04 11:42 -37.40247 145.73021 8911 ft 357 kts 240°
2026-05-04 11:42 -37.41612 145.70412 8908 ft 357 kts 240°
2026-05-04 11:42 -37.42973 145.67807 8903 ft 355 kts 240°
2026-05-04 11:43 -37.44323 145.65214 8890 ft 354 kts 242°
2026-05-04 11:43 -37.45456 145.62495 8908 ft 349 kts 251°
2026-05-04 11:43 -37.46329 145.59647 9002 ft 348 kts 251°
2026-05-04 11:43 -37.47219 145.56823 9147 ft 348 kts 251°
2026-05-04 11:44 -37.48144 145.54000 9515 ft 352 kts 250°
2026-05-04 11:44 -37.49082 145.51150 10312 ft 349 kts 250°
2026-05-04 11:44 -37.49990 145.48376 11424 ft 336 kts 250°
2026-05-04 11:44 -37.51157 145.45835 12166 ft 345 kts 234°
2026-05-04 11:45 -37.53002 145.43644 11479 ft 380 kts 222°
2026-05-04 11:45 -37.55170 145.41609 10260 ft 395 kts 219°
2026-05-04 11:45 -37.57212 145.39362 9579 ft 380 kts 236°
2026-05-04 11:45 -37.58247 145.36489 9547 ft 349 kts 261°
2026-05-04 11:46 -37.58228 145.33547 9402 ft 327 kts 279°
2026-05-04 11:46 -37.57789 145.30820 9320 ft 309 kts 278°
2026-05-04 11:46 -37.57890 145.28144 8547 ft 313 kts 257°
2026-05-04 11:46 -37.58783 145.25513 6994 ft 343 kts 241°
2026-05-04 11:47 -37.60286 145.23076 5984 ft 356 kts 229°
2026-05-04 11:47 -37.62096 145.21070 6033 ft 333 kts 220°
2026-05-04 11:47 -37.63951 145.19580 6486 ft 302 kts 213°
2026-05-04 11:47 -37.65794 145.18465 6389 ft 290 kts 208°
2026-05-04 11:48 -37.67705 145.17510 5510 ft 304 kts 205°
2026-05-04 11:48 -37.69766 145.16578 4331 ft 326 kts 204°
2026-05-04 11:48 -37.71946 145.15643 3528 ft 332 kts 203°
2026-05-04 11:48 -37.74106 145.14750 3326 ft 318 kts 203°
2026-05-04 11:49 -37.76158 145.13945 3290 ft 301 kts 202°
2026-05-04 11:49 -37.78013 145.12931 2577 ft 286 kts 229°
2026-05-04 11:49 -37.79117 145.10970 2789 ft 256 kts 243°
2026-05-04 11:49 -37.80012 145.09121 2754 ft 242 kts 244°
2026-05-04 11:50 -37.80831 145.07280 2394 ft 240 kts 246°
2026-05-04 11:50 -37.81579 145.05414 1979 ft 241 kts 250°
2026-05-04 11:50 -37.82236 145.03463 1609 ft 242 kts 251°
2026-05-04 11:50 -37.82872 145.01494 1210 ft 238 kts 251°
2026-05-04 11:51 -37.83448 144.99717 1583 ft 195 kts 252°
2026-05-04 11:51 -37.83948 144.98230 1933 ft 181 kts 251°
2026-05-04 11:51 -37.84418 144.96773 2269 ft 174 kts 257°
2026-05-04 11:51 -37.84547 144.95280 2862 ft 171 kts 272°
2026-05-04 11:52 -37.84514 144.93722 2860 ft 178 kts 273°
2026-05-04 11:52 -37.84473 144.92171 2869 ft 176 kts 273°
2026-05-04 11:52 -37.84267 144.90644 2893 ft 177 kts 282°
2026-05-04 11:52 -37.83703 144.89267 2903 ft 179 kts 303°
2026-05-04 11:53 -37.83000 144.87976 2887 ft 178 kts 305°
2026-05-04 11:53 -37.82088 144.86901 2867 ft 183 kts 316°
2026-05-04 11:53 -37.80921 144.86169 2709 ft 200 kts 343°
2026-05-04 11:53 -37.79451 144.86253 2181 ft 211 kts 358°
2026-05-04 11:55 -37.70099 144.84582 2356 ft 204 kts 341°
2026-05-04 11:55 -37.68668 144.84366 2890 ft 196 kts 349°
2026-05-04 11:56 -37.67372 144.84409 4316 ft 166 kts 356°
2026-05-04 11:56 -37.66387 144.84613 5907 ft 139 kts 358°
2026-05-04 11:56 -37.65279 144.84816 5977 ft 198 kts 358°
2026-05-04 11:56 -37.63830 144.84438 5454 ft 226 kts 317°